THORAD DELTA 1 DEB, 10393

Orbit data source: Space-Track

THORAD DELTA 1 DEB, 10393 is space debris in SSO originally from a launch on Fri, 15 Nov 1974 UTC launched from the Air Force Western Test Range (AFWTR). Debris objects in space refer to the collection of defunct objects orbiting the Earth. Examples of debris include non-operational satellites, rocket bodies, and fragments generated from explosions, collisions, or faulty payload assembly.

Loading next visibility...
Identifier
10393, 1974-089EJ
Orbit
SSO
Country
Flag of USUS
Related business
Manufacturer
Unknown
Mission
Spacecraft
Bus & Motor
Unknown
Mass
Unknown
Launch date (UTC)
1974-11-15 (51 years ago)
Launch vehicle
Unknown
Launch site
Air Force Western Test Range (AFWTR)
Object type
Payload
Rocket body
Debris
Shape & HBR
Unknown shape, 0.2 m
Radar Cross Section
Small (<0.1 m²)

Expand to show TLE details & history
Last TLE update: 1 day ago

TLE from 1 day ago
0 THORAD DELTA 1 DEB
1 10393U 74089EJ  26034.29389373  .00000001  00000-0  36670-3 0  9999
2 10393 101.6117 336.4466 0157245 177.2108 340.9544 12.24129917293626
Epoch: 2026-02-03T07:03Z
TLE epoch observation values (Epoch: 2026-02-03T07:03:12.418Z)
Latitude
21.96556°
Longitude
-78.10157°
Altitude
1,458.941 km
Speed
7.188 km/s
True Right ascension
10h 44m 42s
True Declination
21° 51' 26"
Sunlit
Object was in full shadow at epoch
Visualization orbit readout
Latitude
Unknown
Longitude
Unknown
Altitude
Unknown
Speed
Unknown
Apparent Right ascension
Unknown
Apparent Declination
Unknown
Sunlit
N/A
Visualization observer readout
Local Sidereal Time
19:46:10
Azimuth
Unknown
Elevation
Unknown
Doppler factor
Unknown
Orbital elements
Apogee altitude
1,697.191 km
Perigee altitude
1,447.161 km
Semi-major axis
7,950.313 km
Eccentricity
0.01572
Inclination
101.6117°
RAAN
336.4466°
Arg. of periapsis
177.2108°
True anomaly
340.35529°
Mean anomaly
340.9544°
Eccentric anomaly
340.65597°
Mean motion
3.06173 °/min
Orbital period
117.58 mins
BSTAR
0.0003667
Loading maneuver chart data...
Computing Atmospheric mass density...
Loading historical data...
Loading historical data...
Loading historical data...
Loading historical data...
Loading historical data...
Loading historical data...
Loading historical data...

Documentation

Showing up to 5 results
|